Time,TemperatureF,DewpointF,PressureIn,WindDirection,WindDirectionDegrees,WindSpeedMPH,WindSpeedGustMPH,Humidity,HourlyPrecipIn,Conditions,Clouds,dailyrainin,SolarRadiationWatts/m^2,SoftwareType,DateUTC
2013-04-01 00:22:00,46.0,19.0,-100.00,NNE,30,4.0,6.0,33,-99.99,,,0.00,0.000000,,2013-04-01 06:22:00,
2013-04-01 00:33:00,46.0,19.0,-100.00,NNE,30,4.0,6.0,33,-99.99,,,0.00,0.000000,,2013-04-01 06:33:00,
2013-04-01 00:42:00,46.0,19.0,-100.00,NNE,30,4.0,6.0,33,-99.99,,,0.00,0.000000,,2013-04-01 06:42:00,
2013-04-01 00:52:00,46.0,19.0,-100.00,NNE,30,4.0,6.0,33,-99.99,,,0.00,0.000000,,2013-04-01 06:52:00,
2013-04-01 01:22:00,44.0,19.0,-100.00,North,5,6.0,7.0,37,-99.99,,,0.00,0.000000,,2013-04-01 07:22:00,
2013-04-01 01:32:00,44.0,19.0,-100.00,North,5,6.0,7.0,37,-99.99,,,0.00,0.000000,,2013-04-01 07:32:00,
2013-04-01 01:42:00,44.0,19.0,-100.00,North,5,6.0,7.0,37,-99.99,,,0.00,0.000000,,2013-04-01 07:42:00,
2013-04-01 01:52:00,44.0,19.0,-100.00,North,5,6.0,7.0,37,-99.99,,,0.00,0.000000,,2013-04-01 07:52:00,
2013-04-01 02:22:00,45.0,19.0,-100.00,NNE,12,4.0,7.0,35,0.00,,,0.00,0.000000,,2013-04-01 08:22:00,
2013-04-01 02:32:00,45.0,19.0,-100.00,NNE,12,4.0,7.0,35,0.00,,,0.00,0.000000,,2013-04-01 08:32:00,
2013-04-01 02:43:00,45.0,19.0,-100.00,NNE,12,4.0,7.0,35,0.00,,,0.00,0.000000,,2013-04-01 08:43:00,
2013-04-01 02:52:00,45.0,19.0,-100.00,NNE,12,4.0,7.0,35,0.00,,,0.00,0.000000,,2013-04-01 08:52:00,
2013-04-01 03:22:00,43.0,20.0,-100.00,NNE,15,5.0,7.0,39,0.00,,,0.00,0.000000,,2013-04-01 09:22:00,
2013-04-01 03:33:00,43.0,20.0,-100.00,NNE,15,5.0,7.0,39,0.00,,,0.00,0.000000,,2013-04-01 09:33:00,
2013-04-01 03:42:00,43.0,20.0,-100.00,NNE,15,5.0,7.0,39,0.00,,,0.00,0.000000,,2013-04-01 09:42:00,
2013-04-01 03:52:00,43.0,20.0,-100.00,NNE,15,5.0,7.0,39,0.00,,,0.00,0.000000,,2013-04-01 09:52:00,
2013-04-01 04:23:00,42.0,21.0,-100.00,NE,37,4.0,8.0,43,0.00,,,0.00,0.000000,,2013-04-01 10:23:00,
2013-04-01 04:33:00,42.0,21.0,-100.00,NE,37,4.0,8.0,43,0.00,,,0.00,0.000000,,2013-04-01 10:33:00,
2013-04-01 04:42:00,42.0,21.0,-100.00,NE,37,4.0,8.0,43,0.00,,,0.00,0.000000,,2013-04-01 10:42:00,
2013-04-01 04:52:00,42.0,21.0,-100.00,NE,37,4.0,8.0,43,0.00,,,0.00,0.000000,,2013-04-01 10:52:00,
2013-04-01 05:23:00,41.0,23.0,-100.00,NNE,26,3.0,9.0,48,0.00,,,0.00,0.000000,,2013-04-01 11:23:00,
2013-04-01 05:32:00,41.0,23.0,-100.00,NNE,26,3.0,9.0,48,0.00,,,0.00,0.000000,,2013-04-01 11:32:00,
2013-04-01 05:42:00,41.0,23.0,-100.00,NNE,26,3.0,9.0,48,0.00,,,0.00,0.000000,,2013-04-01 11:42:00,
2013-04-01 05:52:00,41.0,23.0,-100.00,NNE,26,3.0,9.0,48,0.00,,,0.00,0.000000,,2013-04-01 11:52:00,
2013-04-01 06:22:00,40.0,23.0,-100.00,NE,46,3.0,7.0,51,0.00,,,0.00,0.000000,,2013-04-01 12:22:00,
2013-04-01 06:32:00,40.0,23.0,-100.00,NE,46,3.0,7.0,51,0.00,,,0.00,0.000000,,2013-04-01 12:32:00,
2013-04-01 06:42:00,40.0,23.0,-100.00,NE,46,3.0,7.0,51,0.00,,,0.00,0.000000,,2013-04-01 12:42:00,
2013-04-01 06:52:00,40.0,23.0,-100.00,NE,46,3.0,7.0,51,0.00,,,0.00,0.000000,,2013-04-01 12:52:00,
2013-04-01 07:22:00,39.0,24.0,-100.00,NNW,347,4.0,8.0,54,0.00,,,0.00,0.000000,,2013-04-01 13:22:00,
2013-04-01 07:32:00,39.0,24.0,-100.00,NNW,347,4.0,8.0,54,0.00,,,0.00,0.000000,,2013-04-01 13:32:00,
2013-04-01 07:42:00,39.0,24.0,-100.00,NNW,347,4.0,8.0,54,0.00,,,0.00,0.000000,,2013-04-01 13:42:00,
2013-04-01 07:52:00,39.0,24.0,-100.00,NNW,347,4.0,8.0,54,0.00,,,0.00,0.000000,,2013-04-01 13:52:00,
2013-04-01 08:22:00,40.0,24.0,-100.00,NW,322,4.0,8.0,53,0.00,,,0.00,41.000000,,2013-04-01 14:22:00,
2013-04-01 08:32:00,40.0,24.0,-100.00,NW,322,4.0,8.0,53,0.00,,,0.00,41.000000,,2013-04-01 14:32:00,
2013-04-01 08:42:00,40.0,24.0,-100.00,NW,322,4.0,8.0,53,0.00,,,0.00,41.000000,,2013-04-01 14:42:00,
2013-04-01 08:52:00,40.0,24.0,-100.00,NW,322,4.0,8.0,53,0.00,,,0.00,41.000000,,2013-04-01 14:52:00,
2013-04-01 09:22:00,48.0,27.0,-100.00,SW,223,2.0,5.0,43,0.00,,,-99.99,276.000000,,2013-04-01 15:22:00,
2013-04-01 10:23:00,49.0,24.0,-100.00,ESE,107,3.0,9.0,37,0.00,,,0.00,364.000000,,2013-04-01 16:23:00,
2013-04-01 10:33:00,49.0,24.0,-100.00,ESE,107,3.0,9.0,37,0.00,,,0.00,364.000000,,2013-04-01 16:33:00,
2013-04-01 10:42:00,49.0,24.0,-100.00,ESE,107,3.0,9.0,37,0.00,,,0.00,364.000000,,2013-04-01 16:42:00,
2013-04-01 10:52:00,49.0,24.0,-100.00,ESE,107,3.0,9.0,37,0.00,,,0.00,364.000000,,2013-04-01 16:52:00,
2013-04-01 12:22:00,59.0,26.0,-100.00,South,186,7.0,16.0,28,-99.99,,,0.00,827.000000,,2013-04-01 18:22:00,
2013-04-01 12:32:00,59.0,26.0,-100.00,South,186,7.0,16.0,28,-99.99,,,0.00,827.000000,,2013-04-01 18:32:00,
2013-04-01 12:42:00,59.0,26.0,-100.00,South,186,7.0,16.0,28,-99.99,,,0.00,827.000000,,2013-04-01 18:42:00,
2013-04-01 12:52:00,59.0,26.0,-100.00,South,186,7.0,16.0,28,-99.99,,,0.00,827.000000,,2013-04-01 18:52:00,
2013-04-01 13:23:00,59.0,21.0,-100.00,South,174,9.0,21.0,23,0.00,,,0.00,943.000000,,2013-04-01 19:23:00,
2013-04-01 13:32:00,59.0,21.0,-100.00,South,174,9.0,21.0,23,0.00,,,0.00,943.000000,,2013-04-01 19:32:00,
2013-04-01 13:42:00,59.0,21.0,-100.00,South,174,9.0,21.0,23,0.00,,,0.00,943.000000,,2013-04-01 19:42:00,
2013-04-01 13:52:00,59.0,21.0,-100.00,South,174,9.0,21.0,23,0.00,,,0.00,943.000000,,2013-04-01 19:52:00,
2013-04-01 14:22:00,61.0,14.0,-100.00,SSE,168,8.0,22.0,16,0.00,,,0.00,831.000000,,2013-04-01 20:22:00,
2013-04-01 14:32:00,61.0,14.0,-100.00,SSE,168,8.0,22.0,16,0.00,,,0.00,831.000000,,2013-04-01 20:32:00,
2013-04-01 14:42:00,61.0,14.0,-100.00,SSE,168,8.0,22.0,16,0.00,,,0.00,831.000000,,2013-04-01 20:42:00,
2013-04-01 14:52:00,61.0,14.0,-100.00,SSE,168,8.0,22.0,16,0.00,,,0.00,831.000000,,2013-04-01 20:52:00,
2013-04-01 15:22:00,62.0,12.0,-100.00,South,182,9.0,28.0,14,0.00,,,0.00,915.000000,,2013-04-01 21:22:00,
2013-04-01 15:32:00,62.0,12.0,-100.00,South,182,9.0,28.0,14,0.00,,,0.00,915.000000,,2013-04-01 21:32:00,
2013-04-01 15:43:00,62.0,12.0,-100.00,South,182,9.0,28.0,14,0.00,,,0.00,915.000000,,2013-04-01 21:43:00,
2013-04-01 15:52:00,62.0,12.0,-100.00,South,182,9.0,28.0,14,0.00,,,0.00,915.000000,,2013-04-01 21:52:00,
2013-04-01 16:22:00,61.0,11.0,-100.00,SW,224,9.0,21.0,14,0.00,,,-99.99,699.000000,,2013-04-01 22:22:00,
2013-04-01 16:33:00,61.0,11.0,-100.00,SW,224,9.0,21.0,14,0.00,,,-99.99,699.000000,,2013-04-01 22:33:00,
2013-04-01 16:42:00,61.0,11.0,-100.00,SW,224,9.0,21.0,14,0.00,,,-99.99,699.000000,,2013-04-01 22:42:00,
2013-04-01 16:52:00,61.0,11.0,-100.00,SW,224,9.0,21.0,14,0.00,,,-99.99,699.000000,,2013-04-01 22:52:00,
2013-04-01 17:22:00,62.0,14.0,-100.00,SSW,203,9.0,17.0,15,0.00,,,0.00,470.000000,,2013-04-01 23:22:00,
2013-04-01 17:32:00,62.0,14.0,-100.00,SSW,203,9.0,17.0,15,0.00,,,0.00,470.000000,,2013-04-01 23:32:00,
2013-04-01 17:42:00,62.0,14.0,-100.00,SSW,203,9.0,17.0,15,0.00,,,0.00,470.000000,,2013-04-01 23:42:00,
2013-04-01 17:52:00,62.0,14.0,-100.00,SSW,203,9.0,17.0,15,0.00,,,0.00,470.000000,,2013-04-01 23:52:00,
2013-04-01 18:22:00,62.0,9.0,-100.00,WNW,284,10.0,17.0,12,0.00,,,-99.99,317.000000,,2013-04-02 00:22:00,
2013-04-01 18:32:00,62.0,9.0,-100.00,WNW,284,10.0,17.0,12,0.00,,,-99.99,317.000000,,2013-04-02 00:32:00,
2013-04-01 18:42:00,62.0,9.0,-100.00,WNW,284,10.0,17.0,12,0.00,,,-99.99,317.000000,,2013-04-02 00:42:00,
2013-04-01 18:52:00,62.0,9.0,-100.00,WNW,284,10.0,17.0,12,0.00,,,-99.99,317.000000,,2013-04-02 00:52:00,
2013-04-01 19:22:00,57.0,7.0,-100.00,West,276,7.0,19.0,13,0.00,,,0.00,166.000000,,2013-04-02 01:22:00,
2013-04-01 19:32:00,57.0,7.0,-100.00,West,276,7.0,19.0,13,0.00,,,0.00,166.000000,,2013-04-02 01:32:00,
2013-04-01 19:42:00,57.0,7.0,-100.00,West,276,7.0,19.0,13,0.00,,,0.00,166.000000,,2013-04-02 01:42:00,
2013-04-01 19:52:00,57.0,7.0,-100.00,West,276,7.0,19.0,13,0.00,,,0.00,166.000000,,2013-04-02 01:52:00,
2013-04-01 20:22:00,54.0,7.0,-100.00,NW,313,7.0,15.0,15,0.00,,,0.00,11.000000,,2013-04-02 02:22:00,
2013-04-01 20:32:00,54.0,7.0,-100.00,NW,313,7.0,15.0,15,0.00,,,0.00,11.000000,,2013-04-02 02:32:00,
2013-04-01 20:42:00,54.0,7.0,-100.00,NW,313,7.0,15.0,15,0.00,,,0.00,11.000000,,2013-04-02 02:42:00,
2013-04-01 20:52:00,54.0,7.0,-100.00,NW,313,7.0,15.0,15,0.00,,,0.00,11.000000,,2013-04-02 02:52:00,
2013-04-01 21:22:00,52.0,7.0,-100.00,NW,313,7.0,11.0,16,0.00,,,0.00,0.000000,,2013-04-02 03:22:00,
2013-04-01 21:33:00,52.0,7.0,-100.00,NW,313,7.0,11.0,16,0.00,,,0.00,0.000000,,2013-04-02 03:33:00,
2013-04-01 21:43:00,52.0,7.0,-100.00,NW,313,7.0,11.0,16,0.00,,,0.00,0.000000,,2013-04-02 03:43:00,
2013-04-01 21:52:00,52.0,7.0,-100.00,NW,313,7.0,11.0,16,0.00,,,0.00,0.000000,,2013-04-02 03:52:00,
2013-04-01 22:22:00,51.0,5.0,-100.00,NW,324,5.0,13.0,15,0.00,,,0.00,0.000000,,2013-04-02 04:22:00,
2013-04-01 23:22:00,48.0,7.0,-100.00,East,90,2.0,6.0,18,0.00,,,0.00,0.000000,,2013-04-02 05:22:00,
2013-04-01 23:32:00,48.0,7.0,-100.00,East,90,2.0,6.0,18,0.00,,,0.00,0.000000,,2013-04-02 05:32:00,
2013-04-01 23:42:00,48.0,7.0,-100.00,East,90,2.0,6.0,18,0.00,,,0.00,0.000000,,2013-04-02 05:42:00,
2013-04-01 23:52:00,48.0,7.0,-100.00,East,90,2.0,6.0,18,0.00,,,0.00,0.000000,,2013-04-02 05:52:00,